Weather History for KFST - March, 2013

Change the Weather History Date:

Thursday, March 14, 2013

  Actual Average Record
Temperature  
Mean Temperature 63 °F -  
Max Temperature 82 °F 68 °F 90 °F (2008)
Min Temperature 45 °F 44 °F 33 °F (1999)
Degree Days  
Heating Degree Days 2    
Growing Degree Days 13 (Base 50)    
Moisture  
Dew Point 26 °F    
Average Humidity 28    
Maximum Humidity 52    
Minimum Humidity 8    
Precipitation  
Precipitation 0.00 in - - ()
Sea Level Pressure  
Sea Level Pressure 30.12 in    
Wind  
Wind Speed 11 mph (SSE)    
Max Wind Speed 17 mph    
Max Gust Speed 22 mph    
Visibility 10 miles    
Events      
Averages and records for this station are not official NWS values.
T = Trace of Precipitation, MM = Missing Value Source: NWS Daily Summary

Daily Weather History Graph

Daily Weather History Graph

Search for Another Location

Airport or City:

Trip Planner

Search our weather history database for the weather conditions in past years. The results will help you decide how hot, cold, wet, or windy it might be!

Date:

Astronomy

Mar. 14, 2013 Rise Set
Actual Time 8:02 AM CDT 7:59 PM CDT
Civil Twilight 7:38 AM CDT 8:23 PM CDT
Nautical Twilight 7:10 AM CDT 8:51 PM CDT
Astronomical Twilight 6:42 AM CDT 9:19 PM CDT
Moon 9:31 AM CDT (3/14) 11:01 PM CDT (3/14)
Length of Visible Light 12h 45m
Length of Day
11h 56m
Waxing Crescent, 9% of the Moon is Illuminated
Mar 14
Waxing Crescent
Mar 19
First Quarter
Mar 27
Full
Apr 2
Last Quarter
Apr 10
New

Hourly Weather History & Observations

Time (CDT) Temp. Windchill Dew Point Humidity Pressure Visibility Wind Dir Wind Speed Gust Speed Precip Events Conditions
12:53 AM 55.0 °F - 28.0 °F 35% 30.17 in 10.0 mi SSE 13.8 mph - N/A   Clear
1:53 AM 55.9 °F - 30.9 °F 39% 30.14 in 10.0 mi SSE 16.1 mph - N/A   Clear
2:53 AM 52.0 °F - 30.9 °F 45% 30.14 in 10.0 mi South 10.4 mph - N/A   Clear
3:53 AM 51.1 °F - 30.9 °F 46% 30.14 in 10.0 mi South 10.4 mph - N/A   Clear
4:53 AM 50.0 °F - 30.0 °F 46% 30.13 in 10.0 mi SSE 8.1 mph - N/A   Clear
5:53 AM 50.0 °F - 30.0 °F 46% 30.14 in 10.0 mi South 11.5 mph - N/A   Clear
6:53 AM 48.0 °F - 28.9 °F 48% 30.14 in 10.0 mi South 11.5 mph - N/A   Clear
7:53 AM 45.0 °F 40.1 °F 28.0 °F 52% 30.16 in 10.0 mi South 9.2 mph - N/A   Clear
8:53 AM 52.0 °F - 26.1 °F 37% 30.17 in 10.0 mi SSE 8.1 mph - N/A   Clear
9:53 AM 59.0 °F - 28.0 °F 31% 30.19 in 10.0 mi SSE 8.1 mph - N/A   Clear
10:53 AM 70.0 °F - 23.0 °F 17% 30.19 in 10.0 mi SSW 9.2 mph - N/A   Clear
11:53 AM 73.9 °F - 21.9 °F 14% 30.18 in 10.0 mi Calm Calm - N/A   Clear
12:53 PM 77.0 °F - 19.9 °F 12% 30.17 in 10.0 mi Variable 3.5 mph - N/A   Clear
1:53 PM 79.0 °F - 15.1 °F 9% 30.14 in 10.0 mi Calm Calm - N/A   Clear
2:53 PM 81.0 °F - 14.0 °F 8% 30.10 in 10.0 mi Variable 3.5 mph - N/A   Clear
3:53 PM 80.1 °F - 19.0 °F 10% 30.07 in 10.0 mi Variable 4.6 mph - N/A   Clear
4:53 PM 81.0 °F - 21.0 °F 11% 30.06 in 10.0 mi East 10.4 mph - N/A   Clear
5:53 PM 80.1 °F - 24.1 °F 13% 30.05 in 10.0 mi ESE 17.3 mph - N/A   Clear
6:53 PM 77.0 °F - 24.1 °F 14% 30.06 in 10.0 mi SE 13.8 mph - N/A   Clear
7:53 PM 73.0 °F - 24.1 °F 16% 30.08 in 10.0 mi SE 13.8 mph 21.9 mph N/A   Clear
8:53 PM 68.0 °F - 28.9 °F 23% 30.09 in 10.0 mi SE 11.5 mph - N/A   Clear
9:53 PM 64.0 °F - 30.9 °F 29% 30.09 in 10.0 mi SSE 12.7 mph - N/A   Clear
10:53 PM 63.0 °F - 33.1 °F 33% 30.08 in 10.0 mi SSE 13.8 mph - N/A   Clear
11:53 PM 60.1 °F - 34.0 °F 38% 30.08 in 10.0 mi SSE 12.7 mph - N/A   Clear